This is the latest recevied weather packets stored in our database for station/object KF4UQS-14. If no packets are shown the sender has not sent any weather packets the latest 10 day(s).
| Time | Temp. | Humidity | Pressure | Rain* | Wind** | Luminosity | Snow |
|---|---|---|---|---|---|---|---|
| 1778330654 | 16.11° C | 97% | 1014.3 hPa | 0 mm | - | 164 W/m² | - |
| 1778330352 | 16.11° C | 98% | 1014.2 hPa | 0 mm | - | 156 W/m² | - |
| 1778330048 | 15.56° C | 98% | 1014.2 hPa | 0 mm | - | 156 W/m² | - |
| 1778329744 | 15° C | 98% | 1014.2 hPa | 0 mm | - | 173 W/m² | - |
| 1778329441 | 14.44° C | 98% | 1014.4 hPa | 0 mm | - | 127 W/m² | - |
| 1778329138 | 14.44° C | 98% | 1014.3 hPa | 0 mm | - | 70 W/m² | - |
| 1778328835 | 14.44° C | 98% | 1014.4 hPa | 0 mm | - | 31 W/m² | - |
| 1778328533 | 14.44° C | 98% | 1014.3 hPa | 0 mm | - | 34 W/m² | - |
| 1778328231 | 13.89° C | 98% | 1014.4 hPa | 0 mm | - | 33 W/m² | - |
| 1778327928 | 14.44° C | 98% | 1014.3 hPa | 0 mm | - | 37 W/m² | - |
| 1778327625 | 13.89° C | 99% | 1014.4 hPa | 0 mm | - | 72 W/m² | - |
| 1778327323 | 13.89° C | 99% | 1014.4 hPa | 0 mm | - | 89 W/m² | - |
| 1778327022 | 12.78° C | 99% | 1014.6 hPa | 0 mm | - | 76 W/m² | - |
| 1778326721 | 12.78° C | 99% | 1014.4 hPa | 0 mm | - | 43 W/m² | - |
| 1778326417 | 12.22° C | 99% | 1014.5 hPa | 0 mm | - | 25 W/m² | - |
| 1778326114 | 12.22° C | 99% | 1014.3 hPa | 0 mm | - | 21 W/m² | - |
| 1778325811 | 12.22° C | 99% | 1014.2 hPa | 0 mm | - | 20 W/m² | - |
| 1778325508 | 12.22° C | 99% | 1014.6 hPa | 0 mm | - | 26 W/m² | - |
| 1778325205 | 12.22° C | 98% | 1014.5 hPa | 0 mm | - | 36 W/m² | - |
| 1778324903 | 12.78° C | 99% | 1014.6 hPa | 0 mm | - | 25 W/m² | - |
| 1778324599 | 11.67° C | 99% | 1014.6 hPa | 0 mm | - | 63 W/m² | - |
| 1778324297 | 11.67° C | 98% | 1014.7 hPa | 0 mm | - | 50 W/m² | - |
| 1778323995 | 11.11° C | 98% | 1014.7 hPa | 0 mm | - | 21 W/m² | - |
| 1778323691 | 11.11° C | 98% | 1014.8 hPa | 0 mm | - | 18 W/m² | - |
| 1778323388 | 11.11° C | 98% | 1015 hPa | 0 mm | - | 16 W/m² | - |
* Rain latest hour (hover to see other rain measurements)
** Current wind speed in m/s (hover to see current wind gust speed)